Simultaneous Nadir Overpasses (SNOs) Predictions

Prediction of SNOs between AQUA and NOAA-19 Satellite Orbit:

Table of predicted SNOs for the next 14.0 days since TLE Epoch: 2/2/2013
Index Date (AQUA) Time (AQUA) Lat,Lon (AQUA) SZA (AQUA ) Date (NOAA-19) Time (NOAA-19) Lat,Lon (NOAA-19) SZA (NOAA-19 ) Distance(km) Time Diff (sec)
1 02/02/2013 20:02:20 50.85,-106.87 67.87 02/02/2013 20:01:07 50.76,-107.38 67.69 37.34 73
2 02/02/2013 21:13:17 -49.78,-104.66 41.08 02/02/2013 21:14:20 -49.71,-104.13 41.41 38.48 63
3 02/05/2013 00:46:18 49.75,-177.47 66.18 02/05/2013 00:45:15 49.67,-177.99 66.01 38.34 63
4 02/05/2013 01:57:05 -51.46,-174.99 43.07 02/05/2013 01:58:18 -51.38,-174.46 43.40 38.21 73
5 02/07/2013 05:30:24 49.17, 111.71 64.96 02/07/2013 05:29:31 49.05, 111.19 64.75 40.31 53
6 02/07/2013 06:35:49 -70.49, 128.87 61.36 02/07/2013 06:37:02 -70.26, 130.33 61.68 60.57 73
7 02/09/2013 10:14:28 48.51, 40.92 63.65 02/09/2013 10:13:46 48.38, 40.38 63.43 42.33 42
8 02/09/2013 11:03:11 -46.09,-150.49 118.62 02/09/2013 11:04:01 -45.96,-151.35 118.85 68.14 50
9 02/11/2013 14:58:31 47.83, -29.87 62.31 02/11/2013 14:58:01 47.73, -30.44 62.11 44.44 30
10 02/11/2013 15:47:25 -46.06, 138.46 119.35 02/11/2013 15:48:27 -45.90, 137.56 119.61 71.42 62
11 02/13/2013 19:16:43 -46.03, -76.71 40.86 02/13/2013 19:15:38 -45.85, -75.76 41.08 76.67 65
12 02/13/2013 19:42:32 47.08,-100.63 60.88 02/13/2013 19:42:14 46.98,-101.23 60.68 46.78 18
13 02/16/2013 00:00:56 -46.04,-147.76
